| time (UTC) | temp F | wind direction | speed knots | gust knots | rain 1hr in | rain 24hr in | rain mn in | humidity % | barometer mb |
| 20260508113749 | 79 | 0.0 | 0.0 | 0.00 | 0.00 | 0.00 | 1015.4 | ||
| 20260508111749 | 79 | 0.0 | 0.0 | 0.00 | 0.00 | 0.00 | 1015.5 | ||
| 20260508105749 | 81 | 0.0 | 0.0 | 0.00 | 0.00 | 0.00 | 1015.4 | ||
| 20260508103748 | 84 | 0.0 | 0.0 | 0.00 | 0.00 | 0.00 | 1015.2 | ||
| 20260508101748 | 87 | 0.0 | 0.0 | 0.00 | 0.00 | 0.00 | 1015.0 | ||
| 20260508095747 | 89 | 0.0 | 0.0 | 0.00 | 0.00 | 0.00 | 1015.0 | ||
| 20260508093747 | 88 | 0.0 | 0.0 | 0.00 | 0.00 | 0.00 | 1015.0 | ||
| 20260508091747 | 86 | 0.0 | 0.0 | 0.00 | 0.00 | 0.00 | 1014.9 | ||
| 20260508085747 | 85 | 0.0 | 0.0 | 0.00 | 0.00 | 0.00 | 1014.8 | ||
| 20260508083746 | 84 | 0.0 | 0.0 | 0.00 | 0.00 | 0.00 | 1014.5 | ||
| 20260508081746 | 88 | 0.0 | 0.0 | 0.00 | 0.00 | 0.00 | 1014.3 | ||
| 20260508075745 | 86 | 0.0 | 0.0 | 0.00 | 0.00 | 0.00 | 1014.2 | ||
| 20260508073745 | 84 | 0.0 | 0.0 | 0.00 | 0.00 | 0.00 | 1014.1 | ||
| 20260508071745 | 81 | 0.0 | 0.0 | 0.00 | 0.00 | 0.00 | 1014.1 | ||
| 20260508065744 | 85 | 0.0 | 0.0 | 0.00 | 0.00 | 0.00 | 1013.8 | ||
| 20260508063744 | 83 | 0.0 | 0.0 | 0.00 | 0.00 | 0.00 | 1013.6 | ||
| 20260508061745 | 80 | 0.0 | 0.0 | 0.00 | 0.00 | 0.00 | 1013.7 | ||
| 20260508055743 | 78 | 0.0 | 0.0 | 0.00 | 0.00 | 0.00 | 1013.6 | ||
| 20260508053743 | 74 | 0.0 | 0.0 | 0.00 | 0.00 | 0.00 | 1011.7 | ||
| 20260508051743 | 75 | 0.0 | 0.0 | 0.00 | 0.00 | 0.00 | 1013.1 | ||
| 20260508045742 | 74 | 0.0 | 0.0 | 0.00 | 0.00 | 0.00 | 1013.0 | ||
| 20260508043742 | 74 | 0.0 | 0.0 | 0.00 | 0.00 | 0.00 | 1012.9 | ||
| 20260508041742 | 71 | 0.0 | 0.0 | 0.00 | 0.00 | 0.00 | 1010.1 | ||
| 20260508035742 | 74 | 0.0 | 0.0 | 0.00 | 0.00 | 0.00 | 1012.7 | ||
| 20260508033741 | 74 | 0.0 | 0.0 | 0.00 | 0.00 | 0.00 | 1012.5 | ||
| 20260508031741 | 70 | 0.0 | 0.0 | 0.00 | 0.00 | 0.00 | 1010.0 | ||
| 20260508025740 | 74 | 0.0 | 0.0 | 0.00 | 0.00 | 0.00 | 1012.6 | ||
| 20260508023740 | 75 | 0.0 | 0.0 | 0.00 | 0.00 | 0.00 | 1012.5 | ||
| 20260508021740 | 75 | 0.0 | 0.0 | 0.00 | 0.00 | 0.00 | 1012.6 | ||
| 20260508015739 | 77 | 0.0 | 0.0 | 0.00 | 0.00 | 0.00 | 1012.6 | ||
| 20260508013739 | 78 | 0.0 | 0.0 | 0.00 | 0.00 | 0.00 | 1012.5 | ||
| 20260508011738 | 78 | 0.0 | 0.0 | 0.00 | 0.00 | 0.00 | 1012.5 | ||
| 20260508005737 | 78 | 0.0 | 0.0 | 0.00 | 0.00 | 0.00 | 1012.6 | ||
| 20260508003737 | 79 | 0.0 | 0.0 | 0.00 | 0.00 | 0.00 | 1012.5 | ||
| 20260508001737 | 79 | 0.0 | 0.0 | 0.00 | 0.00 | 0.00 | 1012.1 | ||
| 20260507235736 | 80 | 0.0 | 0.0 | 0.00 | 0.00 | 0.00 | 1012.0 | ||
| 20260507233736 | 81 | 0.0 | 0.0 | 0.00 | 0.00 | 0.00 | 1011.7 | ||
| 20260507231736 | 81 | 0.0 | 0.0 | 0.00 | 0.00 | 0.00 | 1011.9 | ||
| 20260507225735 | 81 | 0.0 | 0.0 | 0.00 | 0.00 | 0.00 | 1012.0 | ||
| 20260507223735 | 81 | 0.0 | 0.0 | 0.00 | 0.00 | 0.00 | 1012.2 | ||
| 20260507221735 | 82 | 0.0 | 0.0 | 0.00 | 0.00 | 0.00 | 1012.2 | ||
| 20260507215735 | 81 | 0.0 | 0.0 | 0.00 | 0.00 | 0.00 | 1012.2 | ||
| 20260507213735 | 80 | 0.0 | 0.0 | 0.00 | 0.00 | 0.00 | 1012.3 | ||
| 20260507211734 | 81 | 0.0 | 0.0 | 0.00 | 0.00 | 0.00 | 1012.4 | ||
| 20260507205734 | 81 | 0.0 | 0.0 | 0.00 | 0.00 | 0.00 | 1012.4 | ||
| 20260507203733 | 82 | 0.0 | 0.0 | 0.00 | 0.00 | 0.00 | 1012.4 | ||
| 20260507201732 | 82 | 0.0 | 0.0 | 0.00 | 0.00 | 0.00 | 1012.3 | ||
| 20260507195732 | 83 | 0.0 | 0.0 | 0.00 | 0.00 | 0.00 | 1012.5 | ||
| 20260507193732 | 82 | 0.0 | 0.0 | 0.00 | 0.00 | 0.00 | 1012.5 | ||
| 20260507191732 | 82 | 0.0 | 0.0 | 0.00 | 0.00 | 0.00 | 1012.6 | ||
| 20260507185731 | 82 | 0.0 | 0.0 | 0.00 | 0.00 | 2.80 | 1012.4 | ||
| 20260507183731 | 82 | 0.0 | 0.0 | 0.00 | 0.00 | 2.80 | 1012.5 | ||
| 20260507181731 | 84 | 0.0 | 0.0 | 0.00 | 0.00 | 2.80 | 1012.3 | ||
| 20260507175730 | 85 | 0.0 | 0.0 | 0.00 | 0.00 | 2.80 | 1011.8 | ||
| 20260507173730 | 84 | 0.0 | 0.0 | 0.00 | 0.00 | 2.80 | 1011.5 | ||
| 20260507171729 | 84 | 0.0 | 0.0 | 0.00 | 0.00 | 2.80 | 1011.5 | ||
| 20260507165729 | 85 | 0.0 | 0.0 | 0.00 | 0.00 | 2.80 | 1011.4 | ||
| 20260507163729 | 85 | 0.0 | 0.0 | 0.00 | 0.00 | 2.80 | 1011.7 | ||
| 20260507161728 | 70 | 0.0 | 0.0 | 0.00 | 0.00 | 2.80 | 1012.3 | ||
| 20260507154115 | 74 | 0.0 | 0.0 | 0.00 | 0.00 | 0.00 | 1012.9 | ||
| 20260507152115 | 73 | 0.0 | 0.0 | 0.00 | 0.00 | 2.80 | 1013.3 | ||
| 20260507150115 | 73 | 0.0 | 0.0 | 0.00 | 0.00 | 2.80 | 1013.3 | ||
| 20260507144114 | 73 | 0.0 | 0.0 | 0.00 | 0.00 | 2.80 | 1013.3 | ||
| 20260507142114 | 73 | 0.0 | 0.0 | 0.00 | 0.00 | 2.80 | 1013.3 | ||
| 20260507140114 | 73 | 0.0 | 0.0 | 0.00 | 0.00 | 2.80 | 1013.2 | ||
| 20260507134113 | 73 | 0.0 | 0.0 | 0.00 | 0.00 | 2.80 | 1013.6 | ||
| 20260507132113 | 72 | 0.0 | 0.0 | 0.00 | 0.00 | 2.80 | 1013.1 | ||
| 20260507130113 | 73 | 0.0 | 0.0 | 0.00 | 0.00 | 2.80 | 1013.7 | ||
| 20260507124112 | 75 | 0.0 | 0.0 | 0.00 | 0.00 | 2.80 | 1013.8 | ||
| 20260507123316 | 78 | 0.0 | 0.0 | 0.00 | 0.00 | 2.80 | 1013.1 | ||
| 20260507123015 | 78 | 0.0 | 0.0 | 0.00 | 0.00 | 2.80 | 1013.1 | ||
| 20260507121319 | 74 | 0.0 | 0.0 | 0.00 | 0.00 | 2.80 | 1013.8 | ||
| 20260507120246 | 73 | 0.0 | 0.0 | 0.00 | 0.00 | 2.80 | 1014.0 | ||
| 20260507115555 | 73 | 0.0 | 0.0 | 0.00 | 0.00 | 2.80 | 1014.1 |